Location: Góry Miechowskie
(50.3599°N, 20.1803°E)
Time: 14:33:43
(UTC+00:00)

Vanguard 2 Rocket - Visible Passes

Search period start: 13 September 2024 00:00
Search period end: 23 September 2024 00:00
Orbit: 553 x 3300 km, 32.9° (Epoch: 13 September)

Date Brightness Start Highest point End Pass type
(mag) Time Alt. Az. Time Alt. Az. Time Alt. Az.
13 Sep 9.5 00:35:44 29° SSE 00:38:18 31° SSE 00:52:36 10° E visible
13 Sep 9.7 02:41:13 17° SW 02:52:19 42° S 03:09:58 10° ESE visible
13 Sep 9.8 23:36:04 23° SE 23:36:04 23° SE 23:45:57 10° E visible
14 Sep 9.4 01:41:33 28° SSW 01:47:52 39° SSE 02:04:24 10° ESE visible
14 Sep 10.3 22:36:25 12° ESE 22:36:25 12° ESE 22:38:17 10° ESE visible
15 Sep 9.3 00:41:54 32° S 00:43:52 33° SSE 00:58:25 10° ESE visible
15 Sep 9.7 02:47:23 17° WSW 02:58:00 41° S 03:15:19 10° ESE visible
15 Sep 9.7 23:42:15 25° SE 23:42:15 25° SE 23:52:03 10° ESE visible
16 Sep 9.3 01:47:45 29° SSW 01:53:34 39° S 02:09:51 10° ESE visible
16 Sep 10.2 22:42:38 14° ESE 22:42:38 14° ESE 22:45:12 10° ESE visible
17 Sep 9.2 00:48:08 34° S 00:49:33 35° SSE 01:04:00 10° ESE visible
17 Sep 9.6 02:53:37 16° WSW 03:03:42 38° S 03:20:23 10° SE visible
17 Sep 9.6 23:48:31 27° SE 23:48:31 27° SE 23:57:53 10° ESE visible
18 Sep 9.2 01:54:00 29° SW 01:59:19 38° S 02:15:05 10° ESE visible
18 Sep 10.1 22:48:57 14° ESE 22:48:57 14° ESE 22:51:29 10° ESE visible
19 Sep 9.2 00:54:26 35° S 00:55:17 35° S 01:09:23 10° ESE visible
19 Sep 9.6 02:59:56 16° WSW 03:09:23 34° SSW 03:25:05 10° SE visible
19 Sep 9.5 23:54:53 27° SE 23:54:53 27° SE 00:03:28 10° ESE visible
20 Sep 9.2 02:00:23 28° SW 02:05:05 35° S 02:20:01 10° SE visible
20 Sep 10.1 22:55:23 14° ESE 22:55:23 14° ESE 22:57:25 10° ESE visible
21 Sep 9.2 01:00:53 34° S 01:01:05 34° S 01:14:32 10° ESE visible
21 Sep 9.6 03:06:23 15° WSW 03:15:04 29° SSW 03:29:20 10° SSE visible
22 Sep 9.6 00:01:25 25° SE 00:01:25 25° SE 00:08:51 10° ESE visible
22 Sep 9.3 02:06:56 26° SW 02:10:51 31° S 02:24:37 10° SE visible
22 Sep 10.2 23:01:59 12° ESE 23:01:59 12° ESE 23:03:05 10° ESE visible
